Regional Weather Roundup
Issued by NWS Albany, NY

Home | Current Version | Previous Version | Text Only | Print | Product List | Glossary On
Versions: 1 2 3 4 5 6 7 8 9 10 11 12 13 14 15 16 17 18 19 20 21 22 23 24 25 26 27 28 29 30 31 32 33 34 35 36 37 38 39 40 41 42 43 44 45 46 47 48 49 50
000
ASUS41 KALY 011410
RWRALY

NEW YORK STATE HOURLY WEATHER ROUNDUP
NATIONAL WEATHER SERVICE ALBANY NY
1000 AM EDT MON JUN 01 2015

NOTE: "FAIR" INDICATES FEW OR NO CLOUDS BELOW 12,000 FEET WITH NO
SIGNIFICANT WEATHER AND/OR NO OBSTRUCTIONS TO VISIBILITY.

NYZ032-033-038>043-046>054-057>066-NYZ062>081-011500-
EAST


CITY           SKY/WX    TMP DP  RH WIND       PRES   REMARKS
ALBANY         DRZL/FOG  52  49  89 NE8       30.18S VSB 1
GLENS FALLS    LGT RAIN  49  46  90 NE10      30.21R FOG
POUGHKEEPSIE   CLOUDY    54  50  86 NE3       30.15S
NEWBURGH       FOG       52  52 100 E12       30.16R VSB 1
MONTGOMERY     LGT RAIN  54  53  97 NE10      30.15R FOG
WHITE PLAINS     N/A     53  51  93 E12       30.13S FOG
ISLIP          DRIZZLE   57  55  93 E8        30.12F FOG
NEW YORK CITY  CLOUDY    56  54  93 NE14      30.12S FOG
CENTRAL PARK   CLOUDY    56  53  90 E8        30.15S FOG
$$

NYZ005>009-017-018-044>046-055-056-011500-
CENTRAL


CITY           SKY/WX    TMP DP  RH WIND       PRES   REMARKS
FULTON         LGT RAIN  54  50  86 NE6       30.12R FOG
SYRACUSE       CLOUDY    53  52  96 E7        30.10S
ROME           CLOUDY    52  50  93 E10       30.14S FOG
ELMIRA         CLOUDY    52  51  97 NE6       30.10S FOG
BINGHAMTON     FOG       53  53 100 N6        30.07S VSB 1
MONTICELLO     CLOUDY    50  50 100 E10       30.14S
$$

NYZ026>034-041>043-011500-
NORTH


CITY           SKY/WX    TMP DP  RH WIND       PRES   REMARKS
WATERTOWN      CLOUDY    52  49  89 NE15      30.15S
FORT DRUM      NOT AVBL
MASSENA        CLOUDY    52  46  80 NE18G26   30.23F
SARANAC LAKE   CLOUDY    48  46  93 NE10      30.16S
PLATTSBURGH    LGT RAIN  50  48  93 NE6       30.25F
$$

NYZ001>004-010>016-019>021-011500-
WEST


CITY           SKY/WX    TMP DP  RH WIND       PRES   REMARKS
NIAGARA FALLS  DRIZZLE   48  46  93 NE13      30.17S FOG
BUFFALO        DRIZZLE   48  46  93 NE8       30.16S FOG
DUNKIRK        CLOUDY    49  46  90 N6        30.17R
JAMESTOWN      CLOUDY    45  43  93 N9        30.14S
WELLSVILLE     CLOUDY    47  45  93 N5        30.12R FOG
ROCHESTER      DRIZZLE   50  48  93 NE9       30.15R FOG
PENN YAN       CLOUDY    51  49  92 NW3       30.11S
$$

             KEY
       WCI = WIND CHILL INDEX
       VSB = VISIBILITY
       HX  = HEAT INDEX
$$



USA.gov is the U.S. government's official web portal to all federal, state and local government web resources and services.